QPF
0.00 0.00 0.00 0.00 0.00 0.00 0.00 0.00 0.00 0.00 0.00 0.00 0.00 0.00 0.00 0.00 0.00 0.00 0.00 0.00 0.00 0.00 0.00 0.00 0.00 0.00 0.00 0.00 0.00 0.00 0.00 0.00 0.00 0.00 0.00 0.00 0.02 0.11 0.24 0.01 0.05 0.03 0.00 0.01 0.01 0.04 0.11 0.02 0.00 0.03 0.05 0.01 0.02 0.07
0.00 0.00 0.00 0.00 0.00 0.00 0.00 0.00 0.00 0.00 0.00 0.00 0.00 0.00 0.00 0.00 0.00 0.00 0.00 0.00 0.00 0.00 0.00 0.00 0.00 0.00 0.00 0.00 0.00 0.00 0.00 0.00 0.00 0.00 0.01 0.00 0.00 0.00 0.01 0.00 0.02 0.02 0.00 0.00 0.01 0.02 0.09 0.08 0.05 0.12 0.08 0.02 0.02 0.00
0.00 0.00 0.00 0.00 0.00 0.00 0.00 0.00 0.00 0.00 0.00 0.00 0.00 0.00 0.00 0.00 0.00 0.00 0.00 0.00 0.00 0.00 0.00 0.00 0.00 0.00 0.00 0.00 0.00 0.00 0.00 0.00 0.00 0.00 0.00 0.00 0.00 0.00 0.00 0.00 0.00 0.01 0.05 0.00 0.02 0.01 0.02 0.32 0.39 0.06 0.03 0.02 0.01 0.00
0.00 0.00 0.01 0.00 0.00 0.00 0.00 0.00 0.00 0.00 0.00 0.00 0.00 0.00 0.00 0.00 0.00 0.00 0.00 0.00 0.00 0.00 0.00 0.00 0.00 0.00 0.00 0.00 0.00 0.00 0.00 0.00 0.00 0.00 0.00 0.00 0.00 0.00 0.00 0.00 0.00 0.00 0.02 0.00 0.01 0.01 0.01 0.01 0.01 0.00 0.00 0.00 0.00 0.00
0.00 0.00 0.00 0.00 0.00 0.00 0.00 0.00 0.00 0.00 0.00 0.00 0.00 0.00 0.00 0.00 0.00 0.00 0.00 0.00 0.00 0.00 0.00 0.00 0.00 0.00 0.00 0.00 0.00 0.00 0.00 0.00 0.00 0.00 0.00 0.00 0.00 0.00 0.01 0.00 0.00 0.00 0.00 0.00 0.01 0.01 0.01 0.00 0.00 0.00 0.00 0.00 0.00 0.00
0.00 0.00 0.00 0.00 0.00 0.00 0.00 0.00 0.00 0.00 0.00 0.00 0.00 0.00 0.00 0.00 0.00 0.00 0.00 0.00 0.00 0.00 0.00 0.00 0.00 0.00 0.00 0.00 0.00 0.00 0.00 0.00 0.00 0.00 0.00 0.00 0.00 0.00 0.00 0.00 0.00 0.01 0.00 0.00 0.00 0.00 0.00 0.01 0.00 0.00 0.00 0.00 0.00 0.00
0.00 0.00 0.00 0.00 0.00 0.00 0.00 0.00 0.00 0.00 0.00 0.00 0.00 0.00 0.00 0.00 0.00 0.00 0.00 0.00 0.00 0.00 0.00 0.00 0.00 0.00 0.00 0.00 0.00 0.00 0.00 0.00 0.00 0.00 0.00 0.00 0.01 0.03 0.00 0.00 0.01 0.04 0.00 0.00 0.00 0.00 0.00 0.00 0.00 0.00 0.00 0.00 0.00 0.00
0.00 0.00 0.00 0.00 0.00 0.00 0.00 0.00 0.00 0.00 0.00 0.00 0.00 0.00 0.00 0.00 0.00 0.00 0.00 0.00 0.00 0.00 0.00 0.00 0.00 0.00 0.00 0.00 0.00 0.00 0.00 0.00 0.00 0.00 0.00 0.00 0.00 0.00 0.00 0.00 0.00 0.00 0.00 0.00 0.00 0.00 0.00 0.00 0.00 0.00 0.00 0.00 0.01 0.00
0.00 0.00 0.00 0.00 0.00 0.00 0.00 0.00 0.00 0.00 0.00 0.00 0.00 0.00 0.00 0.00 0.00 0.00 0.00 0.00 0.00 0.00 0.00 0.00 0.00 0.00 0.00 0.00 0.00 0.00 0.00 0.00 0.00 0.00 0.00 0.00 0.00 0.00 0.00 0.00 0.00 0.00 0.00 0.00 0.00 0.00 0.00 0.00 0.00 0.00 0.00 0.00 0.00 0.00
0.00 0.00 0.00 0.00 0.00 0.00 0.00 0.00 0.00 0.00 0.00 0.00 0.00 0.00 0.00 0.00 0.00 0.00 0.00 0.00 0.00 0.00 0.00 0.00 0.00 0.00 0.00 0.00 0.00 0.00 0.00 0.00 0.00 0.00 0.00 0.00 0.00 0.00 0.00 0.00 0.00 0.00 0.00 0.00 0.00 0.00 0.00 0.00 0.00 0.00 0.00 0.00 0.00 0.00
0.00 0.00 0.00 0.00 0.00 0.00 0.00 0.00 0.00 0.00 0.00 0.00 0.00 0.02 0.01 0.00 0.00 0.00 0.00 0.00 0.00 0.00 0.00 0.00 0.00 0.00 0.00 0.00 0.00 0.00 0.00 0.00 0.00 0.00 0.00 0.00 0.00 0.00 0.00 0.00 0.00 0.00 0.00 0.00 0.00 0.00 0.00 0.00 0.00 0.00 0.00 0.00 0.00 0.00
0.00 0.00 0.00 0.00 0.00 0.00 0.00 0.00 0.00 0.00 0.00 0.00 0.00 0.07 0.03 0.00 0.00 0.00 0.00 0.00 0.00 0.00 0.00 0.00 0.00 0.00 0.00 0.00 0.00 0.00 0.00 0.00 0.00 0.00 0.00 0.00 0.00 0.00 0.00 0.00 0.00 0.00 0.00 0.00 0.00 0.00 0.00 0.00 0.00 0.00 0.00 0.00 0.00 0.00
0.00 0.00 0.00 0.00 0.00 0.00 0.00 0.00 0.00 0.00 0.00 0.01 0.04 0.12 0.10 0.02 0.00 0.00 0.00 0.00 0.00 0.00 0.00 0.00 0.00 0.00 0.00 0.00 0.00 0.00 0.00 0.00 0.00 0.00 0.00 0.00 0.00 0.00 0.00 0.00 0.00 0.00 0.00 0.00 0.00 0.00 0.00 0.00 0.00 0.00 0.00 0.00 0.00 0.00
0.00 0.00 0.00 0.00 0.00 0.00 0.00 0.00 0.00 0.00 0.00 0.03 0.11 0.04 0.06 0.01 0.00 0.00 0.00 0.00 0.00 0.00 0.00 0.00 0.00 0.00 0.00 0.00 0.00 0.00 0.00 0.00 0.00 0.00 0.00 0.00 0.00 0.00 0.00 0.00 0.00 0.00 0.00 0.00 0.00 0.00 0.00 0.00 0.00 0.00 0.00 0.00 0.00 0.00
0.00 0.00 0.00 0.00 0.00 0.01 0.03 0.00 0.00 0.00 0.00 0.03 0.09 0.03 0.00 0.00 0.00 0.00 0.00 0.00 0.00 0.00 0.00 0.00 0.00 0.00 0.00 0.00 0.00 0.00 0.00 0.00 0.00 0.00 0.00 0.00 0.00 0.00 0.00 0.00 0.00 0.00 0.00 0.00 0.00 0.00 0.00 0.00 0.00 0.00 0.00 0.00 0.00 0.00
0.00 0.00 0.00 0.00 0.01 0.01 0.05 0.02 0.00 0.00 0.00 0.00 0.02 0.01 0.00 0.00 0.00 0.00 0.00 0.00 0.01 0.01 0.00 0.00 0.00 0.01 0.01 0.00 0.00 0.00 0.00 0.00 0.00 0.00 0.00 0.00 0.00 0.00 0.00 0.00 0.00 0.00 0.00 0.00 0.00 0.00 0.00 0.00 0.00 0.00 0.00 0.00 0.00 0.00
0.00 0.00 0.00 0.00 0.00 0.00 0.01 0.02 0.03 0.01 0.00 0.00 0.00 0.00 0.00 0.00 0.00 0.00 0.00 0.00 0.01 0.03 0.07 0.01 0.00 0.00 0.00 0.00 0.00 0.00 0.00 0.00 0.00 0.00 0.00 0.00 0.00 0.00 0.00 0.00 0.00 0.00 0.00 0.00 0.00 0.00 0.00 0.00 0.00 0.00 0.00 0.00 0.00 0.00
0.00 0.00 0.00 0.00 0.00 0.00 0.01 0.03 0.12 0.11 0.01 0.00 0.00 0.00 0.00 0.00 0.00 0.00 0.00 0.00 0.00 0.03 0.10 0.02 0.00 0.00 0.00 0.00 0.00 0.00 0.00 0.00 0.00 0.00 0.00 0.00 0.00 0.00 0.00 0.00 0.00 0.00 0.00 0.00 0.00 0.00 0.00 0.00 0.00 0.00 0.00 0.00 0.00 0.00
0.05 0.04 0.02 0.00 0.00 0.02 0.04 0.04 0.09 0.07 0.00 0.00 0.00 0.00 0.00 0.00 0.00 0.00 0.00 0.01 0.01 0.01 0.03 0.07 0.06 0.00 0.00 0.00 0.00 0.00 0.00 0.00 0.00 0.00 0.00 0.00 0.00 0.00 0.00 0.00 0.00 0.00 0.00 0.00 0.00 0.00 0.00 0.00 0.00 0.00 0.00 0.00 0.00 0.00
0.05 0.03 0.01 0.00 0.01 0.04 0.05 0.04 0.03 0.02 0.00 0.00 0.00 0.00 0.00 0.00 0.00 0.00 0.00 0.03 0.16 0.02 0.01 0.04 0.02 0.00 0.00 0.00 0.00 0.00 0.00 0.00 0.00 0.01 0.02 0.02 0.01 0.00 0.00 0.00 0.00 0.00 0.00 0.00 0.00 0.00 0.00 0.00 0.00 0.00 0.00 0.00 0.00 0.00
0.01 0.00 0.01 0.00 0.01 0.01 0.02 0.03 0.03 0.00 0.00 0.00 0.00 0.00 0.00 0.00 0.00 0.00 0.00 0.00 0.03 0.04 0.00 0.05 0.03 0.01 0.00 0.00 0.00 0.00 0.00 0.01 0.10 0.13 0.13 0.13 0.04 0.00 0.00 0.00 0.00 0.00 0.02 0.01 0.04 0.07 0.06 0.01 0.00 0.00 0.00 0.03 0.07 0.07
0.04 0.05 0.09 0.06 0.05 0.04 0.01 0.00 0.00 0.00 0.00 0.00 0.00 0.04 0.02 0.00 0.00 0.00 0.00 0.00 0.00 0.00 0.00 0.00 0.00 0.00 0.00 0.00 0.00 0.00 0.00 0.04 0.16 0.24 0.07 0.01 0.00 0.00 0.00 0.00 0.00 0.01 0.03 0.06 0.10 0.13 0.08 0.01 0.01 0.06 0.10 0.12 0.07 0.01
0.08 0.08 0.11 0.09 0.06 0.03 0.00 0.00 0.00 0.00 0.00 0.00 0.00 0.03 0.02 0.00 0.00 0.00 0.00 0.00 0.00 0.00 0.00 0.00 0.00 0.00 0.00 0.00 0.00 0.00 0.00 0.00 0.00 0.00 0.00 0.00 0.00 0.01 0.03 0.07 0.08 0.03 0.02 0.04 0.01 0.00 0.00 0.01 0.05 0.07 0.05 0.03 0.00 0.00
0.06 0.11 0.12 0.06 0.03 0.01 0.01 0.01 0.01 0.01 0.02 0.00 0.00 0.00 0.00 0.00 0.00 0.00 0.00 0.00 0.00 0.00 0.00 0.00 0.00 0.00 0.00 0.00 0.01 0.01 0.00 0.00 0.00 0.01 0.02 0.02 0.03 0.08 0.27 0.18 0.04 0.01 0.01 0.01 0.00 0.00 0.00 0.00 0.01 0.01 0.00 0.00 0.00 0.00
0.10 0.10 0.06 0.02 0.02 0.03 0.03 0.02 0.03 0.03 0.04 0.05 0.04 0.03 0.02 0.02 0.04 0.02 0.00 0.00 0.00 0.00 0.00 0.00 0.00 0.00 0.00 0.00 0.01 0.04 0.05 0.05 0.14 0.18 0.08 0.05 0.05 0.07 0.01 0.00 0.00 0.00 0.00 0.00 0.00 0.00 0.00 0.00 0.00 0.00 0.00 0.00 0.00 0.00
0.11 0.06 0.05 0.03 0.02 0.03 0.04 0.01 0.01 0.02 0.05 0.07 0.04 0.08 0.04 0.05 0.08 0.02 0.03 0.01 0.02 0.07 0.04 0.06 0.06 0.07 0.07 0.03 0.03 0.07 0.06 0.06 0.09 0.19 0.16 0.03 0.01 0.01 0.01 0.00 0.00 0.00 0.00 0.00 0.00 0.00 0.00 0.00 0.00 0.00 0.00 0.00 0.00 0.00
0.12 0.05 0.04 0.02 0.02 0.01 0.00 0.00 0.00 0.01 0.05 0.05 0.03 0.03 0.03 0.03 0.04 0.07 0.03 0.00 0.04 0.47 0.13 0.10 0.06 0.01 0.00 0.00 0.00 0.00 0.00 0.00 0.00 0.00 0.00 0.00 0.00 0.00 0.00 0.00 0.00 0.00 0.00 0.00 0.00 0.00 0.00 0.00 0.00 0.00 0.00 0.00 0.00 0.00
0.02 0.00 0.01 0.01 0.00 0.00 0.00 0.00 0.00 0.03 0.05 0.03 0.01 0.03 0.05 0.05 0.04 0.01 0.00 0.02 0.06 0.04 0.04 0.01 0.00 0.00 0.00 0.00 0.00 0.00 0.00 0.00 0.00 0.00 0.00 0.00 0.00 0.00 0.00 0.00 0.00 0.00 0.00 0.00 0.00 0.00 0.00 0.00 0.00 0.00 0.00 0.00 0.00 0.00
0.00 0.00 0.00 0.00 0.00 0.00 0.00 0.00 0.00 0.03 0.17 0.03 0.07 0.06 0.06 0.10 0.17 0.01 0.00 0.02 0.01 0.00 0.00 0.00 0.00 0.00 0.00 0.00 0.00 0.00 0.00 0.00 0.00 0.00 0.00 0.00 0.00 0.00 0.00 0.00 0.00 0.00 0.00 0.00 0.00 0.00 0.00 0.00 0.00 0.00 0.00 0.00 0.00 0.00
0.00 0.00 0.00 0.00 0.00 0.00 0.00 0.00 0.00 0.00 0.00 0.00 0.00 0.01 0.02 0.16 0.41 0.14 0.06 0.03 0.00 0.00 0.00 0.00 0.00 0.00 0.00 0.00 0.00 0.00 0.00 0.00 0.00 0.00 0.00 0.00 0.00 0.00 0.00 0.00 0.00 0.00 0.00 0.00 0.00 0.00 0.00 0.00 0.00 0.00 0.00 0.00 0.00 0.00
0.00 0.00 0.00 0.00 0.00 0.00 0.00 0.00 0.00 0.00 0.00 0.00 0.00 0.02 0.04 0.08 0.09 0.03 0.03 0.00 0.00 0.00 0.00 0.00 0.00 0.00 0.00 0.00 0.00 0.00 0.00 0.00 0.00 0.00 0.00 0.00 0.00 0.00 0.00 0.00 0.00 0.00 0.00 0.00 0.00 0.00 0.00 0.00 0.00 0.00 0.00 0.00 0.00 0.00
0.00 0.00 0.00 0.00 0.00 0.00 0.00 0.00 0.00 0.00 0.00 0.00 0.00 0.01 0.02 0.08 0.17 0.06 0.00 0.00 0.00 0.00 0.00 0.00 0.00 0.00 0.00 0.00 0.00 0.00 0.00 0.00 0.00 0.00 0.00 0.00 0.00 0.00 0.00 0.00 0.00 0.00 0.00 0.00 0.00 0.00 0.00 0.00 0.00 0.00 0.00 0.00 0.00 0.00
0.00 0.00 0.00 0.00 0.00 0.00 0.00 0.00 0.00 0.00 0.01 0.02 0.00 0.00 0.01 0.02 0.03 0.00 0.00 0.00 0.00 0.00 0.00 0.00 0.00 0.00 0.00 0.00 0.00 0.00 0.00 0.00 0.00 0.00 0.00 0.00 0.00 0.00 0.00 0.00 0.00 0.00 0.00 0.00 0.00 0.00 0.00 0.00 0.00 0.00 0.00 0.00 0.00 0.00
MSLP
1020.77 1020.62 1020.40 1020.25 1020.25 1020.24 1020.14 1019.91 1019.61 1019.35 1019.11 1018.85 1018.58 1018.38 1018.11 1017.84 1017.55 1017.21 1014.97 1013.72 1013.60 1012.47 1010.76 1009.46 1008.45 1008.62 1008.81 1008.99 1009.42 1009.45 1009.19 1009.26 1009.42 1010.25 1011.03 1011.90 1013.89 1016.02 1016.41 1015.25 1015.38 1015.62 1015.95 1015.39 1015.61 1015.61 1015.50 1014.41 1013.95 1014.28 1015.07 1014.77 1014.71 1015.00
1020.05 1019.92 1019.74 1019.62 1019.65 1019.69 1019.64 1019.47 1019.19 1018.93 1018.70 1018.41 1018.20 1018.03 1017.81 1017.60 1017.42 1017.25 1015.51 1013.09 1012.99 1012.64 1010.94 1009.58 1008.82 1008.66 1008.78 1008.85 1009.07 1009.35 1009.67 1009.67 1009.86 1010.60 1011.69 1012.02 1012.68 1014.78 1014.39 1014.90 1015.32 1015.62 1015.13 1015.29 1015.47 1015.47 1015.92 1016.49 1016.05 1015.31 1015.39 1014.69 1015.29 1015.83
1019.37 1019.23 1019.13 1019.09 1019.17 1019.18 1019.13 1018.94 1018.75 1018.50 1018.23 1017.98 1017.71 1017.67 1017.49 1017.38 1017.21 1017.17 1016.20 1014.56 1013.21 1012.07 1010.73 1009.69 1008.72 1008.47 1008.47 1008.53 1008.71 1009.55 1009.60 1009.77 1010.14 1010.48 1011.29 1011.82 1012.09 1011.95 1012.85 1012.96 1013.59 1014.54 1014.60 1014.98 1015.32 1015.51 1016.06 1015.91 1015.67 1015.46 1014.94 1015.43 1016.03 1016.47
1018.69 1018.57 1018.57 1018.65 1018.69 1018.67 1018.55 1018.43 1018.22 1018.00 1017.74 1017.55 1017.31 1017.28 1017.15 1017.03 1016.90 1016.77 1016.13 1014.69 1014.23 1012.61 1011.28 1009.31 1007.32 1008.31 1008.39 1008.71 1008.97 1009.38 1009.54 1009.61 1010.03 1010.44 1011.15 1011.59 1011.69 1011.31 1011.69 1011.85 1012.27 1012.78 1013.54 1013.91 1014.95 1015.20 1015.47 1015.25 1014.33 1014.27 1015.20 1015.81 1016.32 1016.95
1018.13 1018.05 1018.18 1018.31 1018.27 1018.20 1018.05 1017.91 1017.65 1017.47 1017.30 1017.11 1016.91 1016.95 1016.86 1016.64 1016.47 1016.18 1015.35 1014.09 1013.73 1013.85 1012.19 1010.65 1009.17 1008.34 1008.39 1008.80 1008.99 1009.33 1009.72 1010.11 1010.53 1010.84 1011.13 1011.26 1011.24 1011.47 1011.65 1011.69 1011.79 1011.67 1012.13 1012.61 1013.24 1014.02 1014.05 1013.99 1013.82 1014.39 1015.11 1015.63 1016.13 1017.02
1017.85 1017.95 1018.02 1017.85 1017.85 1017.67 1017.52 1017.41 1017.19 1017.04 1016.89 1016.65 1016.58 1016.59 1016.60 1016.45 1016.23 1015.67 1014.34 1013.00 1013.44 1013.27 1012.70 1011.10 1009.10 1008.17 1008.33 1008.83 1009.26 1009.56 1009.95 1010.17 1010.53 1010.83 1010.98 1010.84 1010.99 1011.63 1012.03 1012.02 1011.22 1011.52 1011.26 1011.27 1012.49 1012.86 1013.28 1013.19 1013.57 1013.94 1014.57 1015.37 1015.99 1016.87
1017.68 1017.61 1017.59 1017.39 1017.33 1017.22 1017.07 1016.91 1016.79 1016.73 1016.53 1016.36 1016.31 1016.31 1016.28 1016.37 1016.31 1015.37 1014.39 1013.54 1013.32 1013.63 1012.79 1011.20 1009.25 1008.35 1008.36 1008.85 1009.31 1009.53 1009.65 1009.99 1010.27 1010.65 1010.75 1010.84 1011.67 1012.13 1012.08 1011.78 1011.74 1010.21 1011.38 1011.05 1011.56 1012.33 1012.89 1013.04 1013.43 1013.81 1014.41 1015.05 1015.83 1016.79
1017.50 1017.52 1017.28 1016.97 1016.93 1016.83 1016.70 1016.56 1016.47 1016.39 1016.27 1016.15 1016.09 1016.02 1016.00 1015.99 1015.83 1014.69 1012.57 1012.47 1013.39 1013.14 1012.46 1011.33 1009.41 1008.53 1008.37 1008.97 1009.38 1009.16 1009.54 1009.76 1010.11 1010.45 1010.52 1011.01 1011.79 1012.03 1012.29 1011.63 1010.88 1010.84 1010.69 1011.09 1011.63 1011.85 1012.24 1012.50 1012.93 1013.51 1013.92 1014.74 1015.53 1016.45
1017.39 1017.37 1017.08 1016.80 1016.71 1016.55 1016.44 1016.37 1016.22 1016.23 1016.08 1016.00 1015.87 1015.81 1015.71 1015.31 1014.07 1012.47 1011.85 1012.30 1012.44 1012.97 1012.18 1010.60 1009.47 1009.01 1008.71 1008.91 1008.90 1009.18 1009.40 1009.65 1009.45 1009.94 1010.14 1010.76 1012.26 1012.63 1011.96 1011.75 1011.36 1011.03 1011.10 1011.47 1011.64 1011.99 1012.17 1012.46 1012.90 1013.27 1013.76 1014.17 1015.00 1015.76
1017.15 1017.07 1016.89 1016.69 1016.59 1016.47 1016.39 1016.15 1016.10 1016.05 1015.94 1015.91 1015.78 1015.25 1014.14 1012.59 1011.79 1012.14 1012.30 1012.29 1012.38 1011.82 1011.42 1010.21 1009.03 1008.75 1008.64 1008.67 1008.71 1009.35 1009.38 1009.52 1009.39 1009.56 1009.75 1010.37 1011.22 1010.96 1011.00 1011.02 1010.93 1010.79 1010.72 1011.07 1011.52 1011.93 1012.25 1012.68 1012.91 1013.21 1013.53 1013.80 1014.21 1014.93
1016.87 1016.79 1016.69 1016.54 1016.51 1016.45 1016.31 1016.05 1016.08 1015.98 1015.92 1015.57 1014.97 1013.84 1012.46 1012.14 1012.04 1011.89 1011.62 1011.58 1011.24 1010.71 1009.95 1009.39 1009.04 1008.95 1008.80 1008.95 1008.75 1008.81 1009.07 1009.19 1009.11 1009.27 1009.55 1009.77 1009.85 1009.78 1010.14 1010.55 1010.57 1010.50 1010.55 1010.85 1011.13 1011.45 1011.92 1012.40 1012.84 1013.19 1013.55 1013.95 1014.36 1014.89
1016.60 1016.61 1016.46 1016.36 1016.36 1016.20 1016.14 1016.11 1016.07 1016.00 1015.27 1015.71 1015.51 1014.25 1012.81 1012.17 1011.73 1011.22 1010.47 1009.99 1009.35 1009.07 1008.09 1008.13 1008.24 1008.63 1009.23 1008.73 1008.63 1008.83 1008.89 1009.09 1008.88 1008.71 1009.19 1009.28 1009.30 1009.21 1009.71 1010.06 1010.24 1010.39 1010.49 1010.79 1010.97 1011.37 1011.81 1012.25 1012.69 1013.19 1013.73 1014.20 1014.63 1015.14
1016.29 1016.35 1016.28 1016.19 1016.10 1015.98 1015.94 1015.95 1015.94 1015.82 1015.36 1014.50 1014.47 1013.27 1012.09 1011.29 1010.88 1009.95 1008.79 1008.01 1007.75 1006.96 1006.74 1006.93 1007.51 1007.89 1008.01 1008.02 1008.44 1008.69 1008.58 1008.59 1008.11 1008.22 1008.37 1008.77 1009.17 1009.38 1009.64 1009.82 1010.11 1010.19 1010.40 1010.70 1011.00 1011.35 1011.85 1012.38 1012.79 1013.24 1013.79 1014.25 1014.61 1014.94
1016.14 1016.15 1016.02 1015.89 1015.85 1015.77 1015.73 1015.72 1015.68 1015.56 1015.60 1014.25 1013.09 1012.65 1011.58 1010.06 1008.91 1008.11 1007.53 1007.05 1006.54 1006.27 1006.25 1006.35 1007.01 1007.17 1007.49 1008.03 1008.03 1008.34 1008.05 1007.85 1007.70 1007.58 1007.55 1007.81 1008.53 1009.01 1009.22 1009.51 1009.87 1010.14 1010.46 1010.77 1011.09 1011.51 1012.02 1012.54 1012.96 1013.39 1013.78 1014.07 1014.49 1014.88
1015.91 1015.83 1015.76 1015.52 1015.38 1015.53 1015.62 1015.51 1015.45 1015.43 1014.77 1013.27 1012.40 1011.26 1009.66 1008.56 1007.60 1007.08 1006.86 1006.59 1005.95 1005.85 1005.86 1006.01 1006.55 1006.95 1007.20 1007.41 1007.34 1007.29 1007.11 1006.92 1006.77 1006.66 1006.79 1007.17 1007.99 1008.66 1009.13 1009.36 1009.58 1009.87 1010.20 1010.53 1010.79 1011.33 1011.86 1012.36 1012.85 1013.31 1013.61 1013.88 1014.30 1014.77
1015.64 1015.49 1015.22 1015.22 1015.47 1015.64 1015.58 1015.43 1015.32 1014.91 1013.79 1012.48 1011.16 1009.83 1008.51 1007.98 1007.23 1006.66 1006.09 1006.30 1006.11 1006.49 1006.18 1005.81 1006.68 1007.43 1007.80 1006.45 1006.37 1006.35 1006.30 1005.89 1005.83 1005.89 1006.47 1007.12 1007.81 1008.27 1008.77 1009.06 1009.32 1009.48 1009.84 1010.10 1010.34 1010.75 1011.26 1011.82 1012.33 1012.76 1013.03 1013.48 1013.98 1014.47
1015.56 1015.12 1014.89 1015.24 1015.50 1015.59 1015.63 1015.63 1015.09 1014.37 1012.92 1011.20 1009.67 1008.94 1008.40 1007.91 1007.15 1006.60 1006.50 1006.59 1007.03 1007.71 1008.31 1007.47 1006.15 1005.78 1005.96 1005.77 1005.51 1005.38 1005.41 1005.20 1005.11 1005.33 1005.87 1006.47 1007.14 1007.56 1007.93 1008.29 1008.48 1008.75 1009.10 1009.51 1009.91 1010.26 1010.63 1011.07 1011.48 1012.11 1012.77 1013.35 1013.64 1014.37
1015.31 1014.82 1015.07 1015.30 1015.43 1015.45 1015.55 1015.47 1014.82 1014.23 1012.56 1010.77 1009.71 1008.55 1008.03 1007.32 1007.01 1006.62 1006.49 1007.11 1007.67 1008.21 1008.71 1008.33 1005.88 1005.38 1004.91 1004.77 1004.81 1004.75 1004.67 1004.82 1005.05 1005.67 1006.07 1006.87 1007.31 1007.47 1007.51 1007.78 1007.80 1007.96 1008.21 1008.45 1008.83 1009.31 1009.85 1010.36 1010.84 1011.59 1012.33 1013.01 1013.58 1014.21
1015.06 1014.89 1015.15 1015.30 1015.41 1015.31 1014.89 1014.91 1014.62 1013.05 1011.16 1009.71 1008.63 1008.21 1007.58 1007.08 1006.65 1006.78 1006.75 1007.14 1007.45 1008.05 1008.47 1007.90 1007.60 1005.83 1005.02 1005.01 1005.03 1004.76 1005.19 1005.67 1005.88 1006.48 1006.63 1006.75 1007.05 1007.31 1007.42 1007.47 1007.58 1007.77 1007.94 1008.05 1008.27 1008.60 1008.93 1009.26 1009.77 1010.62 1011.59 1012.48 1013.41 1014.17
1015.03 1015.11 1015.20 1015.28 1015.37 1014.96 1014.17 1013.71 1013.36 1012.28 1009.87 1008.22 1007.85 1007.35 1007.13 1006.73 1006.55 1006.43 1006.76 1006.99 1007.23 1007.85 1008.07 1007.66 1006.90 1006.06 1005.52 1005.54 1005.51 1005.48 1006.00 1006.46 1007.05 1007.45 1007.98 1008.32 1008.59 1007.51 1007.26 1007.31 1007.22 1007.15 1007.26 1007.59 1007.82 1008.26 1008.97 1009.64 1009.97 1010.43 1011.21 1012.26 1013.25 1014.05
1014.98 1014.69 1015.03 1015.15 1014.80 1014.55 1013.52 1012.22 1011.59 1010.19 1008.43 1007.62 1006.65 1006.46 1006.49 1006.18 1006.12 1006.05 1006.08 1006.85 1007.17 1007.37 1007.07 1006.91 1006.75 1006.05 1005.87 1006.12 1005.35 1005.51 1006.85 1007.68 1007.57 1007.93 1008.55 1008.59 1008.85 1008.49 1006.93 1006.77 1006.89 1006.88 1007.43 1007.47 1007.84 1008.98 1008.34 1009.25 1010.39 1011.23 1012.09 1013.01 1013.57 1014.65
1014.58 1014.60 1014.74 1015.03 1014.58 1013.70 1012.54 1011.09 1010.02 1008.78 1008.17 1007.05 1006.61 1006.60 1006.33 1005.76 1005.39 1005.15 1005.00 1005.42 1005.60 1005.46 1005.21 1005.01 1005.40 1005.54 1004.75 1005.04 1005.64 1005.61 1006.21 1006.86 1007.21 1007.61 1007.40 1007.31 1008.17 1007.66 1006.78 1006.77 1007.07 1007.35 1007.47 1007.68 1008.15 1009.02 1009.90 1010.56 1011.32 1011.79 1012.59 1013.34 1013.84 1014.31
1014.65 1014.60 1014.47 1014.32 1014.15 1013.22 1011.59 1010.13 1009.35 1008.19 1007.53 1006.42 1005.94 1006.21 1005.92 1005.39 1004.75 1004.73 1004.68 1004.42 1004.03 1003.59 1003.53 1003.75 1004.05 1004.24 1004.66 1005.21 1005.32 1005.24 1005.65 1006.12 1006.71 1006.98 1007.27 1007.25 1006.64 1006.86 1007.10 1007.16 1007.84 1007.67 1007.71 1008.44 1008.66 1009.17 1009.81 1010.62 1011.07 1011.57 1012.42 1013.28 1013.33 1013.91
1014.66 1014.31 1013.72 1013.52 1013.15 1011.97 1010.59 1009.38 1008.25 1007.39 1006.79 1006.25 1005.92 1005.53 1004.82 1004.22 1003.87 1004.09 1004.36 1003.98 1003.46 1003.71 1003.39 1003.03 1003.07 1003.53 1003.74 1004.19 1004.66 1005.33 1005.79 1005.97 1006.39 1006.69 1006.64 1006.65 1006.44 1006.94 1006.92 1007.03 1007.23 1007.21 1007.47 1008.39 1009.05 1009.56 1010.08 1010.84 1011.42 1011.97 1012.43 1012.53 1012.67 1013.28
1014.31 1013.77 1013.25 1012.40 1011.69 1011.01 1009.22 1007.59 1006.85 1006.53 1005.90 1005.65 1005.58 1005.42 1004.93 1004.56 1004.34 1003.88 1003.69 1003.83 1004.81 1005.05 1004.94 1004.21 1003.57 1003.42 1003.52 1004.43 1005.01 1005.21 1005.65 1005.87 1006.24 1006.44 1006.41 1006.25 1006.19 1007.21 1006.75 1007.02 1007.47 1007.59 1008.02 1008.48 1009.33 1009.79 1010.42 1010.97 1011.25 1011.51 1011.83 1011.97 1012.21 1012.17
1013.02 1012.03 1011.83 1010.43 1009.45 1008.73 1007.00 1005.65 1005.17 1005.07 1005.28 1005.76 1005.80 1005.91 1005.86 1005.31 1005.45 1004.48 1003.80 1004.46 1005.09 1005.44 1005.01 1004.66 1005.03 1004.79 1005.14 1004.65 1004.92 1005.29 1005.37 1005.49 1005.69 1005.88 1005.88 1005.94 1005.93 1005.89 1006.10 1006.85 1007.68 1008.26 1008.26 1008.66 1009.17 1009.66 1010.25 1010.61 1010.86 1011.19 1011.32 1011.43 1011.23 1011.31
1011.01 1010.01 1009.30 1008.65 1007.31 1006.15 1005.32 1004.64 1004.94 1004.90 1005.16 1005.36 1004.79 1005.03 1005.28 1005.23 1004.69 1004.66 1004.58 1004.97 1005.16 1004.91 1004.50 1004.87 1004.01 1004.42 1004.30 1004.41 1005.17 1005.12 1004.99 1004.91 1005.04 1005.40 1005.71 1005.67 1005.51 1005.41 1005.78 1006.38 1007.07 1007.79 1008.27 1008.73 1009.15 1009.43 1009.80 1010.12 1010.41 1010.55 1010.56 1010.33 1010.57 1010.96
1008.88 1007.23 1006.44 1005.83 1005.42 1004.93 1004.69 1004.44 1004.30 1004.55 1004.97 1004.60 1004.10 1004.35 1004.86 1005.55 1006.17 1005.53 1004.79 1004.93 1005.06 1004.75 1004.90 1004.91 1005.11 1004.45 1004.54 1004.67 1004.69 1004.80 1004.84 1005.10 1005.28 1005.49 1005.70 1005.77 1005.91 1006.08 1006.22 1006.55 1006.65 1007.57 1008.25 1008.72 1009.06 1009.17 1009.45 1009.75 1009.98 1010.07 1009.95 1009.99 1010.07 1010.24
1006.44 1005.19 1004.88 1004.70 1004.53 1004.23 1004.05 1003.74 1003.53 1004.45 1005.13 1004.86 1004.52 1004.75 1005.50 1006.47 1006.58 1005.92 1005.22 1004.87 1005.01 1004.27 1003.75 1003.43 1003.82 1004.07 1004.22 1004.28 1004.42 1004.51 1004.72 1004.72 1004.82 1005.09 1005.13 1005.30 1005.71 1006.15 1006.41 1007.25 1007.82 1007.97 1008.29 1008.68 1008.90 1009.04 1009.22 1009.38 1009.68 1010.08 1010.11 1009.98 1009.51 1009.52
1005.17 1004.40 1004.01 1003.61 1003.53 1003.35 1002.93 1002.62 1002.64 1002.91 1003.56 1003.43 1003.52 1005.25 1006.29 1006.18 1005.58 1005.08 1005.35 1004.91 1004.39 1003.28 1003.22 1003.27 1003.05 1003.06 1003.18 1003.39 1003.63 1003.87 1003.82 1003.83 1003.92 1004.15 1004.22 1004.58 1005.04 1005.48 1006.02 1006.67 1007.25 1007.50 1007.67 1008.10 1008.70 1009.05 1009.36 1009.58 1009.66 1009.78 1009.68 1009.59 1009.33 1009.73
1004.01 1003.57 1003.31 1002.89 1002.46 1001.93 1001.56 1001.59 1001.60 1001.92 1002.29 1002.92 1003.39 1004.40 1005.49 1005.81 1005.57 1005.20 1004.95 1004.34 1003.23 1003.05 1002.94 1002.81 1002.71 1002.62 1002.46 1002.48 1002.75 1003.02 1003.30 1003.59 1003.66 1003.93 1004.09 1004.27 1004.60 1005.31 1005.87 1006.29 1006.94 1007.33 1007.58 1007.64 1008.05 1008.35 1008.71 1009.10 1009.21 1009.15 1009.10 1009.28 1009.27 1009.25
1003.43 1003.05 1002.80 1002.50 1002.12 1001.65 1001.46 1001.17 1001.25 1001.52 1001.97 1002.35 1002.95 1004.12 1004.94 1005.52 1005.40 1005.07 1003.65 1002.88 1002.71 1002.54 1002.58 1002.58 1002.39 1002.53 1002.74 1002.69 1002.81 1003.26 1003.33 1003.29 1003.51 1003.85 1004.17 1004.49 1004.86 1005.05 1005.48 1005.89 1006.13 1006.59 1007.01 1007.30 1007.45 1007.60 1007.89 1008.06 1008.21 1008.27 1008.35 1008.22 1008.29 1008.44
1003.85 1003.55 1003.45 1003.12 1002.70 1002.17 1001.76 1001.63 1001.37 1001.58 1002.31 1002.76 1003.14 1003.29 1003.57 1003.96 1004.02 1003.73 1002.92 1002.43 1002.50 1002.29 1002.40 1002.56 1002.70 1002.97 1003.06 1003.06 1003.21 1003.32 1003.43 1003.33 1003.57 1003.76 1004.01 1004.27 1004.49 1004.67 1004.97 1005.00 1005.22 1005.50 1005.67 1006.13 1006.41 1006.62 1006.73 1006.97 1007.09 1007.07 1007.06 1007.03 1007.14 1007.68
Thickness
5618 5618 5620 5621 5621 5621 5622 5623 5625 5626 5627 5628 5629 5630 5632 5633 5635 5637 5653 5661 5657 5656 5669 5684 5693 5681 5678 5677 5658 5673 5671 5672 5668 5654 5653 5648 5620 5604 5598 5622 5627 5616 5614 5618 5625 5619 5610 5650 5661 5649 5647 5656 5669 5671
5610 5611 5614 5615 5615 5615 5616 5617 5619 5620 5621 5623 5624 5624 5626 5627 5629 5630 5642 5660 5660 5656 5666 5687 5692 5694 5688 5686 5674 5674 5666 5667 5667 5649 5641 5648 5639 5604 5617 5616 5624 5618 5626 5614 5627 5623 5626 5625 5629 5643 5646 5656 5654 5652
5605 5606 5608 5609 5609 5609 5609 5611 5613 5614 5615 5616 5617 5617 5619 5620 5621 5623 5630 5642 5652 5656 5663 5671 5674 5690 5696 5694 5695 5661 5667 5671 5665 5667 5651 5645 5638 5643 5627 5629 5627 5626 5629 5625 5621 5626 5620 5620 5628 5634 5649 5644 5642 5643
5600 5601 5602 5602 5602 5602 5603 5604 5606 5607 5608 5609 5610 5610 5612 5614 5615 5618 5624 5636 5637 5648 5645 5662 5700 5683 5693 5692 5687 5682 5674 5676 5671 5663 5647 5640 5635 5652 5637 5641 5635 5633 5626 5626 5620 5620 5621 5625 5643 5646 5639 5638 5634 5632
5593 5594 5594 5593 5594 5595 5596 5598 5599 5600 5600 5601 5602 5602 5604 5608 5611 5615 5623 5634 5637 5630 5633 5649 5673 5686 5687 5684 5680 5678 5671 5663 5655 5647 5643 5636 5645 5639 5636 5638 5634 5645 5636 5628 5623 5623 5627 5632 5642 5639 5633 5631 5631 5625
5583 5583 5583 5585 5586 5588 5590 5591 5592 5592 5593 5595 5595 5596 5597 5600 5605 5612 5623 5637 5635 5638 5634 5637 5670 5677 5681 5678 5673 5669 5664 5661 5654 5648 5643 5650 5651 5635 5621 5619 5641 5636 5644 5646 5630 5639 5634 5639 5641 5640 5633 5629 5628 5622
5573 5572 5574 5577 5579 5581 5583 5584 5585 5586 5587 5588 5588 5589 5591 5593 5597 5610 5621 5628 5632 5631 5631 5634 5649 5673 5678 5673 5668 5665 5667 5659 5655 5648 5643 5645 5636 5626 5621 5612 5627 5629 5638 5644 5641 5635 5630 5636 5631 5634 5632 5630 5626 5620
5563 5563 5565 5569 5572 5574 5576 5578 5579 5581 5581 5582 5582 5583 5586 5589 5595 5607 5625 5628 5624 5626 5630 5625 5644 5658 5675 5658 5652 5668 5659 5659 5654 5647 5650 5640 5633 5628 5610 5629 5640 5642 5640 5639 5638 5640 5636 5638 5636 5632 5632 5628 5622 5615
5553 5554 5558 5562 5564 5566 5569 5571 5573 5574 5576 5576 5577 5579 5583 5588 5601 5615 5622 5623 5624 5620 5616 5634 5636 5634 5666 5658 5663 5661 5660 5646 5659 5645 5644 5642 5611 5594 5619 5626 5629 5635 5630 5629 5634 5633 5635 5630 5629 5630 5627 5626 5619 5616
5547 5549 5552 5555 5557 5559 5561 5564 5566 5568 5570 5570 5573 5581 5588 5604 5613 5610 5607 5608 5610 5618 5625 5632 5653 5641 5657 5656 5654 5651 5655 5645 5638 5648 5654 5639 5627 5640 5640 5638 5637 5638 5638 5636 5627 5623 5627 5625 5624 5625 5627 5627 5624 5623
5541 5543 5545 5548 5550 5552 5554 5557 5558 5561 5563 5569 5577 5588 5597 5600 5600 5599 5599 5601 5609 5612 5629 5639 5642 5641 5656 5643 5647 5658 5647 5647 5639 5644 5644 5642 5642 5651 5650 5644 5643 5646 5643 5641 5639 5635 5632 5630 5625 5625 5624 5622 5619 5615
5536 5538 5540 5542 5543 5545 5548 5549 5551 5555 5564 5560 5563 5574 5586 5587 5589 5591 5600 5611 5616 5616 5641 5637 5642 5647 5639 5655 5649 5652 5646 5648 5637 5660 5648 5638 5653 5659 5655 5652 5650 5649 5647 5644 5644 5638 5635 5633 5630 5625 5621 5619 5618 5613
5530 5533 5534 5536 5538 5540 5542 5543 5546 5548 5552 5561 5567 5577 5581 5583 5565 5590 5602 5618 5620 5641 5647 5648 5641 5646 5652 5657 5648 5645 5642 5638 5662 5650 5645 5650 5655 5658 5655 5653 5650 5651 5649 5646 5644 5641 5638 5634 5632 5626 5620 5618 5618 5613
5523 5526 5528 5531 5532 5535 5537 5539 5542 5544 5546 5558 5567 5551 5572 5584 5599 5610 5617 5624 5638 5644 5649 5652 5645 5646 5652 5643 5646 5636 5648 5653 5643 5641 5649 5662 5658 5657 5656 5655 5651 5648 5647 5644 5641 5637 5634 5629 5626 5624 5621 5618 5614 5610
5517 5520 5522 5526 5529 5530 5532 5535 5537 5538 5546 5559 5564 5559 5587 5602 5615 5623 5629 5631 5644 5649 5652 5651 5646 5644 5644 5642 5645 5646 5644 5641 5649 5650 5665 5668 5662 5657 5653 5653 5651 5649 5646 5644 5641 5636 5632 5628 5623 5619 5618 5614 5610 5605
5513 5516 5521 5522 5522 5524 5527 5530 5532 5537 5548 5559 5570 5580 5597 5601 5609 5620 5630 5632 5639 5636 5644 5651 5639 5622 5621 5645 5644 5642 5644 5646 5657 5667 5669 5666 5660 5657 5654 5654 5652 5650 5646 5644 5642 5638 5633 5628 5622 5619 5617 5613 5607 5602
5507 5514 5518 5517 5517 5519 5520 5522 5528 5537 5550 5565 5577 5590 5594 5598 5607 5618 5623 5624 5628 5618 5605 5623 5635 5638 5647 5641 5645 5655 5650 5660 5669 5673 5674 5669 5663 5660 5659 5657 5655 5653 5650 5646 5641 5637 5633 5630 5624 5617 5609 5605 5601 5595
5503 5509 5510 5511 5511 5514 5516 5517 5525 5529 5543 5562 5569 5583 5592 5602 5606 5614 5620 5617 5617 5612 5605 5606 5645 5641 5645 5646 5648 5658 5667 5668 5669 5667 5670 5666 5662 5660 5660 5657 5657 5655 5652 5649 5645 5640 5634 5627 5619 5612 5605 5600 5593 5586
5500 5504 5504 5505 5507 5511 5518 5518 5520 5535 5554 5568 5579 5585 5593 5600 5609 5612 5615 5614 5615 5613 5608 5612 5607 5627 5643 5649 5649 5658 5657 5657 5656 5656 5659 5660 5658 5656 5655 5655 5654 5651 5648 5646 5642 5638 5634 5629 5622 5613 5605 5596 5585 5577
5495 5498 5499 5500 5502 5509 5520 5524 5527 5536 5560 5578 5582 5585 5591 5597 5604 5608 5609 5609 5607 5604 5602 5610 5620 5632 5640 5640 5647 5651 5649 5646 5643 5637 5636 5634 5636 5645 5646 5645 5648 5650 5649 5646 5641 5633 5622 5614 5612 5609 5601 5590 5580 5569
5491 5496 5496 5497 5506 5509 5521 5532 5537 5552 5570 5576 5589 5591 5590 5597 5599 5602 5607 5603 5601 5597 5606 5615 5620 5631 5636 5634 5646 5646 5637 5630 5630 5630 5625 5623 5615 5630 5646 5645 5644 5644 5635 5635 5630 5615 5615 5610 5600 5592 5583 5573 5565 5551
5490 5492 5495 5495 5503 5513 5524 5539 5548 5561 5567 5577 5581 5580 5584 5593 5599 5606 5614 5609 5611 5617 5623 5628 5628 5626 5633 5634 5635 5640 5635 5630 5627 5625 5627 5629 5621 5629 5640 5637 5630 5625 5625 5622 5618 5610 5598 5592 5584 5579 5571 5563 5552 5547
5485 5489 5494 5499 5504 5510 5524 5544 5548 5562 5563 5577 5585 5579 5583 5593 5604 5610 5605 5614 5621 5630 5633 5634 5634 5632 5630 5630 5633 5635 5635 5629 5626 5628 5627 5628 5633 5627 5623 5622 5613 5612 5611 5606 5604 5599 5592 5581 5576 5572 5562 5552 5552 5544
5482 5490 5499 5504 5509 5519 5537 5544 5558 5564 5573 5577 5582 5586 5597 5605 5614 5605 5603 5613 5624 5625 5628 5632 5635 5633 5633 5633 5630 5624 5621 5626 5622 5618 5618 5618 5621 5614 5614 5612 5611 5614 5610 5600 5593 5587 5581 5572 5563 5559 5554 5552 5548 5541
5483 5492 5500 5502 5523 5529 5545 5561 5567 5570 5577 5583 5585 5589 5595 5601 5597 5605 5610 5616 5609 5605 5610 5615 5627 5629 5628 5619 5617 5620 5618 5617 5614 5613 5612 5614 5608 5601 5611 5610 5602 5601 5596 5591 5581 5575 5568 5561 5557 5555 5551 5548 5544 5543
5490 5510 5506 5532 5543 5547 5565 5577 5582 5584 5585 5576 5581 5579 5584 5587 5580 5593 5608 5604 5600 5599 5605 5610 5606 5601 5598 5613 5613 5611 5615 5614 5611 5609 5610 5610 5607 5608 5604 5597 5587 5582 5583 5579 5573 5567 5560 5556 5553 5549 5546 5544 5542 5544
5514 5524 5534 5541 5558 5572 5579 5588 5584 5586 5582 5579 5591 5591 5593 5590 5595 5596 5602 5600 5599 5599 5604 5606 5615 5610 5615 5614 5607 5610 5613 5614 5613 5610 5607 5606 5607 5607 5601 5593 5586 5582 5577 5572 5567 5563 5558 5554 5551 5548 5547 5548 5544 5539
5531 5551 5556 5567 5573 5582 5579 5582 5586 5586 5587 5595 5602 5598 5596 5591 5584 5594 5602 5600 5599 5602 5602 5604 5604 5612 5608 5608 5609 5608 5608 5607 5604 5601 5599 5597 5595 5593 5592 5589 5587 5575 5571 5565 5561 5558 5555 5551 5547 5545 5545 5542 5540 5538
5554 5569 5574 5572 5576 5580 5581 5584 5590 5583 5576 5586 5590 5592 5590 5584 5584 5591 5597 5601 5599 5605 5612 5613 5608 5609 5608 5609 5608 5607 5604 5602 5597 5591 5591 5590 5587 5584 5584 5576 5570 5568 5564 5558 5552 5551 5548 5545 5541 5539 5536 5535 5537 5535
5562 5575 5576 5581 5579 5579 5591 5599 5599 5602 5598 5604 5608 5588 5582 5585 5591 5597 5595 5597 5602 5610 5610 5610 5614 5614 5611 5608 5605 5603 5606 5606 5604 5599 5595 5591 5588 5587 5581 5574 5567 5563 5559 5554 5547 5542 5535 5533 5533 5530 5531 5530 5530 5526
5575 5579 5581 5587 5590 5600 5608 5612 5613 5612 5612 5604 5604 5595 5587 5587 5591 5597 5596 5601 5611 5611 5609 5609 5611 5614 5615 5613 5609 5606 5603 5604 5603 5599 5597 5594 5590 5580 5573 5567 5560 5555 5551 5549 5544 5540 5536 5531 5528 5527 5526 5522 5522 5522
5577 5580 5584 5586 5593 5605 5611 5612 5613 5611 5610 5608 5607 5596 5591 5583 5584 5589 5607 5614 5612 5610 5610 5609 5612 5611 5612 5613 5611 5604 5600 5602 5599 5594 5589 5582 5577 5574 5570 5563 5559 5553 5547 5543 5541 5539 5535 5532 5529 5527 5525 5526 5524 5523
5572 5577 5579 5583 5587 5593 5604 5607 5610 5609 5603 5601 5602 5606 5605 5599 5595 5601 5613 5617 5614 5614 5612 5611 5610 5608 5605 5604 5600 5599 5595 5595 5590 5585 5580 5576 5573 5568 5564 5563 5559 5555 5551 5546 5542 5539 5537 5534 5532 5530 5530 5530 5529 5526